User: anonymous
Location: Dover
(39.1580°N, 75.5250°W)
Time: 16:56:38
(UTC-04:00)
Language:

SeaSat 1 - Orbit

View from above orbital plane
View from above orbital plane
View from above satellite
View from above satellite

Ground track
Ground track

The orbit data is extracted from the following two-line orbital elements,

1 10967U 78064A   14108.83537148  .00000647  00000-0  23375-3 0  2624
2 10967 107.9902 047.3736 0001017 285.9741 128.3658 14.42981864879912
Epoch (UTC): 18 April 2014 20:02:56
Eccentricity: 0.0001017
inclination: 107.9902°
perigee height: 748 km
apogee height: 749 km
right ascension of ascending node: 47.3736°
argument of perigee: 285.9741°
revolutions per day: 14.42981864
mean anomaly at epoch: 128.3658°
orbit number at epoch: 87991

The dashed part of the orbit path shows where the satellite is in the earth's shadow,  

DLR